DateTimeUTC,F1_A11,F1_S11,BsB_S11,BsG_S11,BsR_S11,BbsB_S11,BbsG_S11,BbsR_S11,BaB_A11,BaG_A11,BaR_A11,Tu_S11,T_S11,Uu_S11,U_S11,P_S11,T1_A11
2021-02-09T21:00:00Z,00000200,21000000,,,,,,,-000.48,-000.00,0000.16,15.6,23.0,,00.0,0651.2,30.9
2021-02-09T21:01:00Z,00000200,21000000,,,,,,,0000.10,-000.30,-000.22,15.6,23.0,,00.0,0651.2,30.9
2021-02-09T21:02:00Z,00000200,21000000,,,,,,,-000.11,0000.07,-000.19,15.6,23.0,,00.0,0651.2,30.9
2021-02-09T21:03:00Z,00000200,61000000,,,,,,,0000.59,0000.17,0000.53,15.6,23.0,,00.0,0651.2,30.9
2021-02-09T21:04:00Z,00000200,41000000,0001.29,0000.58,0000.07,-000.42,0000.04,0000.14,0000.36,0000.38,0000.18,15.6,22.8,,00.0,0652.0,30.9
2021-02-09T21:05:00Z,00000200,01000000,0001.48,0000.86,0000.58,0000.11,0000.26,0000.04,0000.15,0000.42,0000.41,15.6,22.7,,00.0,0652.0,30.9
2021-02-09T21:06:00Z,00000200,01000000,0001.50,0000.66,0000.28,0000.97,0000.09,0000.26,0000.86,0000.15,0000.32,15.6,22.7,,00.0,0652.0,30.9
2021-02-09T21:07:00Z,00000200,01000000,0001.40,0000.86,0000.57,0000.14,0000.44,-000.01,0000.31,0000.65,0000.01,15.6,22.6,,00.0,0651.9,30.9
2021-02-09T21:08:00Z,00000200,01000000,0001.53,0000.73,0000.46,-000.14,0000.19,0000.04,0000.93,0000.60,0000.56,15.6,22.6,,00.0,0651.9,30.9
2021-02-09T21:09:00Z,00000200,01000000,0001.31,0000.83,0000.76,0000.27,0000.26,-000.12,0000.16,0000.55,0000.41,15.7,22.7,,00.0,0651.9,30.9
2021-02-09T21:10:00Z,00000200,01000000,0001.13,0001.15,0000.23,0000.10,0000.26,-000.04,0000.82,0000.24,0000.66,15.8,22.7,,00.0,0651.9,30.9
2021-02-09T21:11:00Z,00000200,01000000,0001.09,0001.13,0000.38,0000.30,0000.10,-000.14,0000.40,0000.77,0000.34,15.9,22.8,,00.0,0651.8,30.9
2021-02-09T21:12:00Z,00000200,01000000,0001.10,0000.69,0000.33,0000.03,0000.27,0000.16,0000.33,0000.69,0000.39,15.9,22.8,,00.0,0651.8,30.9
2021-02-09T21:13:00Z,00000200,01000000,0001.17,0000.88,0000.31,0000.16,0000.06,-000.05,0000.49,0000.14,0000.20,16.0,22.8,,00.0,0651.8,30.9
2021-02-09T21:14:00Z,00000200,01000000,0001.31,0000.90,0000.19,0000.40,0000.04,-000.09,0000.55,0000.13,0000.34,16.0,22.8,,00.0,0651.9,30.9
2021-02-09T21:15:00Z,00000200,01000000,0001.77,0000.95,-000.12,-000.05,0000.13,-000.17,0000.44,0000.70,0000.03,16.0,22.8,,00.0,0651.8,30.9
2021-02-09T21:16:00Z,00000200,01000000,0000.91,0001.08,-000.13,-000.39,0000.38,0000.18,0001.11,0001.05,0001.04,16.0,22.8,,00.0,0651.8,30.9
2021-02-09T21:17:00Z,00000200,01000000,0001.45,0000.60,0000.34,0000.00,0000.15,0000.06,0002.69,0002.27,0001.53,15.9,22.8,,00.0,0651.8,30.9
2021-02-09T21:18:00Z,00000200,01000000,0002.32,0000.91,0000.44,0000.61,0000.23,0000.24,0007.38,0006.63,0005.18,15.9,22.8,,00.0,0651.8,30.9
2021-02-09T21:19:00Z,00000200,01000000,0002.03,0001.90,0000.89,0000.30,0000.52,0000.47,0020.81,0019.13,0014.54,15.8,22.8,,00.0,0651.8,30.9
2021-02-09T21:20:00Z,00000200,01000000,0001.62,0001.26,0000.63,0000.61,0000.14,0000.21,0015.25,0013.88,0011.04,15.8,22.7,,00.0,0651.8,30.9
2021-02-09T21:21:00Z,00000200,01000000,0001.33,0000.54,0000.39,0000.31,0000.12,-000.08,0001.60,0001.01,0000.84,15.7,22.7,,00.0,0651.7,30.9
2021-02-09T21:22:00Z,00000200,01000000,0001.10,0000.84,0000.59,0000.27,0000.13,0000.22,0000.54,0000.79,0000.53,15.7,22.7,,00.0,0651.7,30.9
2021-02-09T21:23:00Z,00000200,01000000,0001.30,0000.81,0000.48,0000.07,0000.04,0000.10,0000.78,0000.85,0000.41,15.8,22.7,,00.0,0651.7,30.9
2021-02-09T21:24:00Z,00000200,01000000,0001.29,0000.86,0000.47,0000.39,-000.03,-000.01,0000.58,0000.53,0000.43,15.9,22.7,,00.0,0651.7,30.9
2021-02-09T21:25:00Z,00000200,01000000,0001.19,0000.61,0000.08,0000.10,0000.33,-000.27,0000.47,0000.34,0000.62,15.9,22.8,,00.0,0651.7,30.9
2021-02-09T21:26:00Z,00000200,01000000,0001.25,0000.83,0000.25,0000.66,-000.03,-000.06,0000.40,0000.35,0000.12,16.0,22.8,,00.0,0651.7,30.9
2021-02-09T21:27:00Z,00000200,01000000,0001.81,0000.79,0000.59,0000.63,0000.07,0000.25,0000.50,0001.13,0000.48,16.0,22.8,,00.0,0651.7,30.9
2021-02-09T21:28:00Z,00000200,01000000,0001.72,0000.89,0000.24,-000.19,0000.11,0000.05,0000.59,-000.09,0000.52,16.1,22.8,,00.0,0651.7,30.9
2021-02-09T21:29:00Z,00000200,01000000,0001.62,0000.74,0000.39,0000.30,0000.36,0000.15,0000.36,0000.39,0000.02,16.2,22.9,,00.0,0651.7,31.0
2021-02-09T21:30:00Z,00000200,01000000,0001.25,0001.00,0000.17,0000.23,0000.01,-000.06,0000.41,0000.25,0000.33,16.2,22.9,,00.0,0651.7,30.9
2021-02-09T21:31:00Z,00000200,01000000,0000.99,0000.58,0000.22,-000.61,0000.08,0000.10,0000.43,0000.41,-000.18,16.2,22.9,,00.0,0651.7,30.9
2021-02-09T21:32:00Z,00000200,01000000,0001.14,0000.93,0000.24,0000.02,0000.33,0000.22,0000.08,0000.28,0000.11,16.1,22.9,,00.0,0651.7,30.9
2021-02-09T21:33:00Z,00000200,01000000,0001.24,0000.76,0000.46,-000.03,-000.10,0000.11,0000.37,0000.06,0000.59,16.0,22.9,,00.0,0651.7,30.9
2021-02-09T21:34:00Z,00000200,01000000,0001.28,0000.96,0000.23,0000.02,0000.21,-000.02,0000.06,0000.09,-000.21,16.0,22.8,,00.0,0651.7,30.9
2021-02-09T21:35:00Z,00000200,01000000,0000.85,0000.98,0000.54,0000.52,0000.30,0000.09,0000.59,0000.20,0000.55,15.9,22.8,,00.0,0651.7,30.9
2021-02-09T21:36:00Z,00000200,01000000,0001.04,0000.83,0000.32,0000.44,-000.19,0000.33,0000.17,0000.42,-000.30,15.9,22.8,,00.0,0651.7,30.9
2021-02-09T21:37:00Z,00000200,01000000,0000.20,0000.94,0000.19,-000.26,0000.15,0000.07,0000.40,0000.42,0000.56,15.9,22.8,,00.0,0651.7,30.9
2021-02-09T21:38:00Z,00000200,01000000,0001.09,0000.55,0000.60,0000.02,0000.16,-000.28,0000.67,0000.66,0000.26,15.9,22.8,,00.0,0651.7,30.9
2021-02-09T21:39:00Z,00000200,01000000,0001.31,0000.78,0000.29,0000.44,0000.16,-000.09,-000.01,-000.13,0000.20,16.0,22.8,,00.0,0651.7,30.9
2021-02-09T21:40:00Z,00000200,01000000,0001.14,0000.82,0000.56,0000.07,0000.07,0000.05,0000.45,0000.30,-000.16,16.0,22.8,,00.0,0651.7,30.9
2021-02-09T21:41:00Z,00000200,01000000,0000.54,0000.74,0000.25,-000.15,0000.11,0000.06,0000.21,0000.14,0000.15,16.0,22.8,,00.0,0651.6,30.9
2021-02-09T21:42:00Z,00000200,01000000,0001.29,0000.66,0000.29,0000.68,0000.15,0000.32,-000.06,0000.27,0000.42,15.9,22.8,,00.0,0651.6,30.9
2021-02-09T21:43:00Z,00000200,01000000,0000.73,0000.75,0000.45,0000.24,0000.22,0000.04,0000.64,0000.31,0000.01,15.9,22.8,,00.0,0651.6,30.9
2021-02-09T21:44:00Z,00000200,01000000,0000.43,0000.37,0000.15,0000.11,0000.31,-000.01,0000.18,0000.35,0000.33,15.8,22.7,,00.0,0651.6,30.9
2021-02-09T21:45:00Z,00000200,01000000,0001.72,0000.52,0000.40,0000.08,0000.34,-000.05,0000.44,0000.45,0000.11,15.8,22.7,,00.0,0651.6,30.9
2021-02-09T21:46:00Z,00000200,01000000,0001.40,0000.81,0000.28,0000.13,0000.42,-000.11,0000.44,0000.01,0000.14,15.7,22.7,,00.0,0651.6,30.9
2021-02-09T21:47:00Z,00000200,01000000,0001.15,0000.92,0000.40,0000.69,0000.00,-000.02,0000.21,0000.45,0000.38,15.7,22.7,,00.0,0651.7,30.9
2021-02-09T21:48:00Z,00000200,01000000,0000.89,0000.78,0000.59,-000.11,0000.20,0000.07,0000.04,0000.34,-000.15,15.6,22.6,,00.0,0651.7,30.9
2021-02-09T21:49:00Z,00000200,01000000,0001.56,0001.00,0000.17,0000.17,0000.03,-000.15,0000.07,-000.27,0000.08,15.5,22.6,,00.0,0651.7,30.9
2021-02-09T21:50:00Z,00000200,01000000,0001.33,0000.71,0000.24,0000.18,0000.05,-000.04,0000.36,0000.08,-000.10,15.5,22.6,,00.0,0651.7,30.8
2021-02-09T21:51:00Z,00000200,01000000,0001.18,0000.86,0000.32,-000.21,0000.14,0000.02,0000.05,0000.29,0000.18,15.5,22.5,,00.0,0651.6,30.8
2021-02-09T21:52:00Z,00000200,01000000,0002.00,0000.80,0000.30,0000.52,0000.04,-000.06,0000.56,0000.63,0000.60,15.5,22.5,,00.0,0651.6,30.8
2021-02-09T21:53:00Z,00000200,01000000,0001.70,0000.69,0000.18,0000.46,0000.12,0000.01,0000.49,0000.35,0000.26,15.5,22.5,,00.0,0651.6,30.9
2021-02-09T21:54:00Z,00000200,01000000,0001.62,0000.56,0000.03,0000.15,0000.37,0000.34,0000.26,0000.07,0000.11,15.6,22.5,,00.0,0651.7,30.9
2021-02-09T21:55:00Z,00000200,01000000,0001.14,0000.54,0000.34,-000.26,-000.08,0000.02,0000.40,0000.29,0000.54,15.7,22.6,,00.0,0651.7,30.9
2021-02-09T21:56:00Z,00000200,01000000,0000.94,0000.63,0000.24,-000.36,0000.03,-000.12,0000.43,0000.76,0000.26,15.7,22.6,,00.0,0651.7,30.9
2021-02-09T21:57:00Z,00000200,41000000,,,,,,,0000.94,0000.50,0000.30,15.8,22.7,,00.0,0651.8,30.9
2021-02-09T21:58:00Z,00000200,61000000,,,,,,,-000.62,-000.36,-000.16,15.5,22.8,,00.0,0650.8,30.9
2021-02-09T21:59:00Z,00000200,21000000,,,,,,,-000.05,-000.24,0000.04,15.5,22.9,,00.0,0650.7,30.9
